Leadville, CO

9:40 PM MDT on March 24, 2017 (GMT -0600)
Lake County

Weather History for KLXV - December, 2011

Change the Weather History Date:

Friday, December 30, 2011

  Actual Average Record
Temperature  
Mean Temperature 32 °F -  
Max Temperature 40 °F 29 °F 42 °F (2016)
Min Temperature 24 °F 4 °F -17 °F (1982)
Degree Days  
Heating Degree Days 33 49  
Month to date heating degree days 1450 1452  
Since 1 July heating degree days 4619 4857  
Cooling Degree Days 0 0  
Month to date cooling degree days 0 0  
Year to date cooling degree days 0 0  
Moisture  
Dew Point 15 °F    
Average Humidity 50    
Maximum Humidity 63    
Minimum Humidity 36    
Precipitation  
Precipitation 0.00 in 0.02 in 0.18 in (2010)
Month to date precipitation 0.40 0.73  
Year to date precipitation 14.93 12.43  
Sea Level Pressure  
Sea Level Pressure 29.92 in    
Wind  
Wind Speed 9 mph (NE)    
Max Wind Speed 22 mph    
Max Gust Speed 31 mph    
Visibility 10 miles    
Events      
T = Trace of Precipitation, MM = Missing Value Source: NWS Daily Summary

Daily Weather History Graph

Daily Weather History Graph

Search for Another Location

Airport or City:

Trip Planner

Search our weather history database for the weather conditions in past years. The results will help you decide how hot, cold, wet, or windy it might be!

Date:

Astronomy

Dec. 30, 2011 Rise Set
Actual Time 7:24 AM MST 4:51 PM MST
Civil Twilight 6:54 AM MST 5:21 PM MST
Nautical Twilight 6:20 AM MST 5:54 PM MST
Astronomical Twilight 5:48 AM MST 6:27 PM MST
Moon 10:47 AM MST (12/30) 11:26 PM MST (12/30)
Length of Visible Light 10h 26m
Length of Day
9h 26m
Waxing Crescent, 36% of the Moon is Illuminated
Dec 30
Waxing Crescent
Dec 31
First Quarter
Jan 9
Full
Jan 16
Last Quarter
Jan 23
New

Hourly Weather History & Observations

Time (MST) Temp. Windchill Dew Point Humidity Pressure Visibility Wind Dir Wind Speed Gust Speed Precip Events Conditions
12:53 AM 26.1 °F 16.8 °F 14.0 °F 60% 29.99 in 10.0 mi NE 9.2 mph - N/A   Overcast
1:53 AM 26.1 °F 15.0 °F 12.0 °F 55% 29.99 in 10.0 mi NE 12.7 mph 20.7 mph N/A   Mostly Cloudy
2:53 AM 24.1 °F 18.2 °F 10.9 °F 57% 30.02 in 10.0 mi ENE 4.6 mph - N/A   Partly Cloudy
3:53 AM 24.1 °F 18.2 °F 12.0 °F 60% 30.03 in 10.0 mi NE 4.6 mph - N/A   Overcast
4:53 AM 28.9 °F 21.9 °F 15.1 °F 56% 29.99 in 10.0 mi Variable 6.9 mph - N/A   Overcast
5:53 AM 28.9 °F - 17.1 °F 61% 30.00 in 10.0 mi Calm Calm - N/A   Overcast
6:53 AM 28.9 °F 20.4 °F 17.1 °F 61% 30.03 in 10.0 mi ENE 9.2 mph - N/A   Overcast
7:53 AM 30.0 °F 20.5 °F 17.1 °F 59% 30.01 in 10.0 mi NNE 11.5 mph - N/A   Overcast
8:53 AM 32.0 °F 25.6 °F 18.0 °F 56% 30.02 in 10.0 mi NNE 6.9 mph - N/A   Overcast
9:53 AM 34.0 °F 28.0 °F 19.0 °F 54% 30.02 in 10.0 mi Variable 6.9 mph 19.6 mph N/A   Overcast
10:53 AM 36.0 °F 27.5 °F 19.0 °F 50% 29.99 in 10.0 mi NE 12.7 mph 19.6 mph N/A   Mostly Cloudy
11:53 AM 37.0 °F 29.8 °F 19.0 °F 48% 29.92 in 10.0 mi NE 10.4 mph 17.3 mph N/A   Mostly Cloudy
12:53 PM 39.0 °F 31.4 °F 19.9 °F 46% 29.89 in 10.0 mi North 12.7 mph 26.5 mph N/A   Partly Cloudy
1:53 PM 39.9 °F 33.4 °F 19.9 °F 45% 29.86 in 10.0 mi North 10.4 mph 21.9 mph N/A   Clear
2:53 PM 39.0 °F 29.3 °F 19.9 °F 46% 29.86 in 10.0 mi North 19.6 mph 31.1 mph N/A   Clear
3:53 PM 37.0 °F 28.1 °F 19.0 °F 48% 29.87 in 10.0 mi NNW 15.0 mph 20.7 mph N/A   Clear
4:53 PM 34.0 °F 26.0 °F 17.1 °F 50% 29.84 in 10.0 mi NNE 10.4 mph 17.3 mph N/A   Clear
5:53 PM 30.9 °F 26.2 °F 15.1 °F 52% 29.87 in 10.0 mi East 4.6 mph - N/A   Clear
6:53 PM 28.9 °F 21.9 °F 14.0 °F 54% 29.89 in 10.0 mi East 6.9 mph - N/A   Clear
7:53 PM 30.0 °F 22.4 °F 10.9 °F 45% 29.86 in 10.0 mi East 8.1 mph - N/A   Clear
8:53 PM 28.9 °F 19.2 °F 7.0 °F 40% 29.83 in 10.0 mi ENE 11.5 mph - N/A   Clear
9:53 PM 32.0 °F 24.2 °F 8.1 °F 37% 29.75 in 10.0 mi ENE 9.2 mph 21.9 mph N/A   Clear
10:53 PM 30.9 °F 25.2 °F 7.0 °F 37% 29.74 in 10.0 mi ENE 5.8 mph - N/A   Clear
11:53 PM 33.1 °F 28.7 °F 8.1 °F 35% 29.70 in 10.0 mi NNE 4.6 mph - N/A   Mostly Cloudy